Date String (YYYY-MM-DD hh:mm:ss) UTC,Instrument flags,absolute air pressure of the measurement (hPa),sample flow rate (lpm),inlet stack bypass flow (lpm),air temperature of the measurement (°C),ambient temperature measured by the external sensor (°C),aerosol sample conditioner tube jacket temperature (°C),OPC LED temperature (°C),internal box temperature (°C),relative humidity of the measurement (%),span deviation,mass concentration of particles derived from Lorenz-Mie calculation of OPC scattering (μg/m³),mass concentration of particles derived from Lorenz-Mie calculation of OPC scattering (μg/m³),mass concentration of particles derived from Lorenz-Mie calculation of OPC scattering (μg/m³)
DateTimeUTC,F1_M11,P_M11,Q1_M11,Q2_M11,T1_M11,T2_M11,T3_M11,T4_M11,T5_M11,U1_M11,ZSPAN_M11,X0_M11,X2_M11,X1_M11
2023-10-02 05:00:00,SystemResetWarning,0827.9,5.01,000.00,028.3,027.1,000.0,036.7,030.1,15.3,0000.0,0009.17,0003.97,0003.45
2023-10-02 05:01:00,SystemResetWarning,0828.0,5.00,000.00,028.3,027.1,000.0,036.7,030.1,15.3,0000.0,0009.72,0003.99,0003.44
2023-10-02 05:02:00,SystemResetWarning,0827.9,5.00,000.00,028.3,027.2,000.0,036.7,030.1,15.3,0000.0,0010.23,0004.03,0003.46
2023-10-02 05:03:00,SystemResetWarning,0827.9,4.99,000.00,028.4,027.2,000.0,036.7,030.1,15.3,0000.0,0010.08,0004.02,0003.46
2023-10-02 05:04:00,SystemResetWarning,0827.9,4.99,000.00,028.4,027.2,000.0,036.8,030.2,15.2,0000.0,0009.54,0004.01,0003.47
2023-10-02 05:05:00,SystemResetWarning,0827.9,5.00,000.00,028.4,027.3,000.0,036.8,030.2,15.2,0000.0,0009.29,0004.00,0003.46
2023-10-02 05:06:00,SystemResetWarning,0828.0,5.01,000.00,028.4,027.3,000.0,036.8,030.2,15.3,0000.0,0009.97,0004.00,0003.45
2023-10-02 05:07:00,SystemResetWarning,0828.0,5.00,000.00,028.5,027.3,000.0,036.8,030.2,15.2,0000.0,0010.47,0004.01,0003.45
2023-10-02 05:08:00,SystemResetWarning,0828.0,5.00,000.00,028.5,027.3,000.0,036.8,030.3,15.2,0000.0,0010.56,0004.05,0003.44
2023-10-02 05:09:00,SystemResetWarning,0828.1,4.98,000.00,028.5,025.7,000.0,036.8,030.1,15.2,0000.0,0010.81,0004.07,0003.43
2023-10-02 05:10:00,SystemResetWarning,0828.1,5.01,000.00,028.4,024.4,000.0,036.7,030.0,15.1,0000.0,0010.91,0004.06,0003.44
2023-10-02 05:11:00,SystemResetWarning,0828.1,5.01,000.00,028.3,024.3,000.0,036.7,029.8,15.0,0000.0,0010.67,0004.07,0003.43
2023-10-02 05:12:00,SystemResetWarning,0828.1,5.00,000.00,028.2,024.6,000.0,036.7,029.7,15.1,0000.0,0010.96,0004.07,0003.42
2023-10-02 05:13:00,SystemResetWarning,0828.1,5.00,000.00,028.1,025.0,000.0,036.7,029.7,15.3,0000.0,0010.78,0004.06,0003.41
2023-10-02 05:14:00,SystemResetWarning,0828.1,5.00,000.00,028.1,025.3,000.0,036.7,029.7,15.4,0000.0,0010.38,0004.06,0003.41
2023-10-02 05:15:00,SystemResetWarning,0828.1,5.00,000.00,028.1,025.6,000.0,036.7,029.7,15.4,0000.0,0010.81,0004.05,0003.41
2023-10-02 05:16:00,SystemResetWarning,0828.1,5.00,000.00,028.1,025.9,000.0,036.7,029.8,15.4,0000.0,0010.84,0004.05,0003.41
2023-10-02 05:17:00,SystemResetWarning,0828.1,5.00,000.00,028.1,026.2,000.0,036.7,029.8,15.4,0000.0,0010.22,0004.06,0003.42
2023-10-02 05:18:00,SystemResetWarning,0828.1,5.00,000.00,028.1,026.4,000.0,036.7,029.9,15.4,0000.0,0009.72,0004.07,0003.43
2023-10-02 05:19:00,SystemResetWarning,0828.1,5.00,000.00,028.1,026.5,000.0,036.7,029.9,15.4,0000.0,0009.67,0004.07,0003.44
2023-10-02 05:20:00,SystemResetWarning,0828.0,5.00,000.00,028.2,026.7,000.0,036.7,029.9,15.4,0000.0,0009.40,0004.03,0003.43
2023-10-02 05:21:00,SystemResetWarning,0828.0,5.00,000.00,028.2,026.8,000.0,036.7,030.0,15.4,0000.0,0008.80,0003.99,0003.43
2023-10-02 05:22:00,SystemResetWarning,0828.0,5.00,000.00,028.2,026.9,000.0,036.7,030.0,15.4,0000.0,0008.44,0003.96,0003.44
2023-10-02 05:23:00,SystemResetWarning,0828.1,5.00,000.00,028.2,026.9,000.0,036.7,030.0,15.3,0000.0,0007.75,0003.98,0003.45
2023-10-02 05:24:00,SystemResetWarning,0828.1,5.00,000.00,028.2,027.0,000.0,036.7,030.0,15.2,0000.0,0007.55,0003.99,0003.47
2023-10-02 05:25:00,SystemResetWarning,0828.1,5.00,000.00,028.3,027.0,000.0,036.7,030.0,15.1,0000.0,0007.74,0004.04,0003.47
2023-10-02 05:26:00,SystemResetWarning,0828.1,5.00,000.00,028.3,027.1,000.0,036.7,030.1,15.0,0000.0,0007.46,0004.09,0003.47
2023-10-02 05:27:00,SystemResetWarning,0828.1,5.00,000.00,028.3,027.1,000.0,036.7,030.1,15.0,0000.0,0007.86,0004.11,0003.48
2023-10-02 05:28:00,SystemResetWarning,0828.1,5.00,000.00,028.3,027.1,000.0,036.7,030.1,14.9,0000.0,0008.08,0004.11,0003.49
2023-10-02 05:29:00,SystemResetWarning,0828.1,5.00,000.00,028.3,027.2,000.0,036.7,030.1,14.7,0000.0,0008.10,0004.11,0003.49
2023-10-02 05:30:00,SystemResetWarning,0828.1,5.00,000.00,028.4,027.2,000.0,036.8,030.1,14.7,0000.0,0008.24,0004.11,0003.50
2023-10-02 05:31:00,SystemResetWarning,0828.2,5.00,000.00,028.4,027.2,000.0,036.8,030.2,14.8,0000.0,0008.86,0004.16,0003.52
2023-10-02 05:32:00,SystemResetWarning,0828.2,5.00,000.00,028.4,027.2,000.0,036.8,030.2,14.7,0000.0,0009.31,0004.23,0003.53
2023-10-02 05:33:00,SystemResetWarning,0828.2,5.00,000.00,028.4,027.3,000.0,036.8,030.2,14.7,0000.0,0009.92,0004.27,0003.54
2023-10-02 05:34:00,SystemResetWarning,0828.2,5.00,000.00,028.5,027.3,000.0,036.8,030.2,14.6,0000.0,0010.17,0004.24,0003.54
2023-10-02 05:35:00,SystemResetWarning,0828.2,5.00,000.00,028.5,027.3,000.0,036.8,030.2,14.6,0000.0,0010.20,0004.22,0003.54
2023-10-02 05:36:00,SystemResetWarning,0828.2,4.98,000.00,028.5,026.1,000.0,036.8,030.2,14.6,0000.0,0010.12,0004.16,0003.55
2023-10-02 05:37:00,SystemResetWarning,0828.2,5.01,000.00,028.4,024.5,000.0,036.8,029.9,14.5,0000.0,0010.12,0004.11,0003.55
2023-10-02 05:38:00,SystemResetWarning,0828.2,5.01,000.00,028.3,024.2,000.0,036.7,029.7,14.5,0000.0,0009.79,0004.08,0003.56
2023-10-02 05:39:00,SystemResetWarning,0828.2,4.99,000.00,028.2,024.4,000.0,036.7,029.6,14.7,0000.0,0009.55,0004.09,0003.56
2023-10-02 05:40:00,SystemResetWarning,0828.2,5.00,000.00,028.1,024.8,000.0,036.7,029.6,14.7,0000.0,0009.54,0004.07,0003.56
2023-10-02 05:41:00,SystemResetWarning,0828.2,5.01,000.00,028.1,025.1,000.0,036.7,029.6,14.7,0000.0,0009.51,0004.04,0003.55
2023-10-02 05:42:00,SystemResetWarning,0828.2,5.00,000.00,028.0,025.5,000.0,036.7,029.7,14.7,0000.0,0009.50,0004.01,0003.55
2023-10-02 05:43:00,SystemResetWarning,0828.2,4.99,000.00,028.0,025.7,000.0,036.6,029.7,14.7,0000.0,0009.48,0003.97,0003.55
2023-10-02 05:44:00,SystemResetWarning,0828.2,5.00,000.00,028.0,026.0,000.0,036.6,029.7,14.7,0000.0,0009.71,0003.95,0003.55
2023-10-02 05:45:00,SystemResetWarning,0828.3,5.00,000.00,028.0,026.2,000.0,036.6,029.8,14.7,0000.0,0009.70,0003.99,0003.56
2023-10-02 05:46:00,SystemResetWarning,0828.3,5.00,000.00,028.1,026.3,000.0,036.6,029.8,14.7,0000.0,0009.71,0004.03,0003.56
2023-10-02 05:47:00,SystemResetWarning,0828.3,5.00,000.00,028.1,026.5,000.0,036.6,029.8,14.9,0000.0,0009.64,0004.08,0003.56
2023-10-02 05:48:00,SystemResetWarning,0828.3,5.00,000.00,028.1,026.6,000.0,036.6,029.8,14.8,0000.0,0010.20,0004.11,0003.57
2023-10-02 05:49:00,SystemResetWarning,0828.3,5.00,000.00,028.1,026.7,000.0,036.6,029.9,14.7,0000.0,0010.61,0004.15,0003.56
2023-10-02 05:50:00,SystemResetWarning,0828.3,4.99,000.00,028.1,026.7,000.0,036.6,029.9,14.6,0000.0,0011.13,0004.18,0003.58
2023-10-02 05:51:00,SystemResetWarning,0828.4,4.99,000.00,028.1,026.8,000.0,036.6,029.9,14.7,0000.0,0011.48,0004.21,0003.58
2023-10-02 05:52:00,SystemResetWarning,0828.3,5.00,000.00,028.2,026.9,000.0,036.6,029.9,14.9,0000.0,0011.49,0004.26,0003.60
2023-10-02 05:53:00,SystemResetWarning,0828.3,5.01,000.00,028.2,026.9,000.0,036.6,030.0,14.9,0000.0,0011.05,0004.27,0003.60
2023-10-02 05:54:00,SystemResetWarning,0828.3,5.01,000.00,028.2,027.0,000.0,036.6,030.0,14.9,0000.0,0011.05,0004.32,0003.62
2023-10-02 05:55:00,SystemResetWarning,0828.4,4.99,000.00,028.2,027.0,000.0,036.6,030.0,15.0,0000.0,0010.38,0004.32,0003.63
2023-10-02 05:56:00,SystemResetWarning,0828.3,4.99,000.00,028.3,027.1,000.0,036.7,030.0,15.1,0000.0,0010.34,0004.32,0003.63
2023-10-02 05:57:00,SystemResetWarning,0828.3,4.99,000.00,028.3,027.1,000.0,036.7,030.1,15.1,0000.0,0010.31,0004.36,0003.63
2023-10-02 05:58:00,SystemResetWarning,0828.4,5.00,000.00,028.3,027.1,000.0,036.7,030.1,15.1,0000.0,0010.83,0004.36,0003.63
2023-10-02 05:59:00,SystemResetWarning,0828.4,5.00,000.00,028.3,027.1,000.0,036.7,030.1,15.1,0000.0,0011.37,0004.41,0003.64
